Flag for U.S.A. Weather past 2 weeks in Denver, Colorado, U.S.A.

Now
54 °F

Passing clouds.


Feels Like: 51 °F
Forecast: 50 / 77 °F
Wind: 13 mph from Southeast

Location: Buckley Air Force Base

Current Time: Sep 1, 2014 at 1:44:33 AM

Latest Report: Sep 1, 2014 at 12:58 AM


Visibility: 10 mi

Pressure: 29.86 "Hg

Humidity: 80%

Dew point: 48 °F

Location of DenverLocation

Historic Weather in Denver — Graph

°F

Denver temperature yesterday

Maximum temperature yesterday: 76 °F (at 2:58 PM)
Minimum temperature yesterday: 56 °F (at 1:58 AM)
Average temperature yesterday: 64 °F

Past Weeks' High & Low Weather Summary

 TemperatureHumidityPressure
High90 °F (Aug 19, 2:58 PM)100% (Aug 26, 3:58 AM)30.23 "Hg (Aug 26, 3:58 AM)
Low52 °F (Aug 25, 6:58 AM)17% (Aug 17, 11:58 AM)29.67 "Hg (Aug 31, 4:58 AM)
Average66 °F59%29.90 "Hg
* Reported Aug 16 11:58 PM — Aug 31 11:58 PM, Denver, Weather by CustomWeather, © 2014

Note: Actual official high and low records may vary slightly from our data, if they occured in-between our weather recording intervals... More about our weather records

Advertising

Denver weather history for previous 24 hours

 ConditionsComfort  
Time TempWeatherWind HumidityBarometerVisibility
11:58 PM
Aug 31
56 °FPassing clouds.8 mph76%29.84 "Hg10 mi
10:58 PM57 °FPassing clouds.5 mph74%29.83 "Hg10 mi
9:58 PM56 °FPassing clouds.7 mph78%29.84 "Hg10 mi
8:58 PM59 °FPassing clouds.8 mph71%29.80 "Hg10 mi
7:58 PM62 °FPassing clouds.8 mph64%29.81 "Hg10 mi
6:58 PM65 °FBroken clouds.No wind55%29.78 "Hg10 mi
5:58 PM67 °FBroken clouds.9 mph54%29.77 "Hg10 mi
4:58 PM70 °FBroken clouds.15 mph48%29.72 "Hg10 mi
3:58 PM74 °FPartly sunny.13 mph43%29.72 "Hg10 mi
2:58 PM76 °FBroken clouds.10 mph38%29.71 "Hg10 mi
1:58 PM75 °FBroken clouds.6 mph39%29.75 "Hg10 mi
12:58 PM74 °FBroken clouds.6 mph40%29.74 "Hg10 mi
11:58 AM72 °FScattered clouds.9 mph44%29.78 "Hg10 mi
10:58 AM69 °FScattered clouds.8 mph52%29.80 "Hg10 mi
9:58 AM65 °FBroken clouds.9 mph59%29.80 "Hg10 mi
8:58 AM64 °FBroken clouds.9 mph63%29.75 "Hg10 mi
7:58 AM58 °FBroken clouds.10 mph70%29.77 "Hg10 mi
6:58 AM60 °FPartly cloudy.7 mph57%29.69 "Hg10 mi
5:58 AM59 °FPartly cloudy.7 mph59%29.67 "Hg10 mi
4:58 AM62 °FPartly cloudy.8 mph51%29.67 "Hg10 mi
3:58 AM56 °FPassing clouds.7 mph66%29.70 "Hg10 mi
2:58 AM59 °FPassing clouds.6 mph59%29.71 "Hg10 mi
1:58 AM56 °FPassing clouds.1 mph68%29.74 "Hg10 mi
Weather by CustomWeather, © 2014

See weather overviewHow to use our weather pages